FW5161 Weather Reports


Display with metric or nautical units.
time (UTC)temp
F
wind
direction
speed
MPH
gust
MPH
rain 1hr
in
rain 24hr
in
rain mn
in
humidity
%
barometer
mb
20260503205003 71 337 2.0 5.0 0.00 0.00 0.00 48 1012.8
20260503204229 70 355 2.0 5.0 0.00 0.00 0.00 46 1012.8
20260503203732 70 38 2.0 4.0 0.00 0.00 0.00 51 1012.9
20260503202959 70 330 2.0 4.0 0.00 0.00 0.00 51 1013.1
20260503202230 69 41 2.0 5.0 0.00 0.00 0.00 48 1013.1
20260503201729 69 95 2.0 5.0 0.00 0.00 0.00 49 1013.2
20260503201229 68 42 2.0 4.0 0.00 0.00 0.00 52 1013.3
20260503200729 67 301 3.0 5.0 0.00 0.00 0.00 57 1013.4
20260503200501 67 32 2.0 5.0 0.00 0.00 0.00 59 1013.5
20260503195729 67 309 2.0 6.0 0.00 0.00 0.00 58 1013.5
20260503195229 69 87 2.0 6.0 0.00 0.00 0.00 58 1013.7
20260503194734 67 353 2.0 5.0 0.00 0.00 0.00 60 1013.6
20260503194233 66 309 2.0 7.0 0.00 0.00 0.00 60 1013.6
20260503193727 66 52 3.0 7.0 0.00 0.00 0.00 61 1013.6
20260503193222 67 55 2.0 7.0 0.00 0.00 0.00 59 1013.5
20260503192721 68 266 2.0 5.0 0.00 0.00 0.00 57 1013.6
20260503192221 68 60 2.0 6.0 0.00 0.00 0.00 57 1013.6
20260503191721 67 41 3.0 8.0 0.00 0.00 0.00 56 1013.7
20260503191219 67 295 3.0 8.0 0.00 0.00 0.00 58 1013.7
20260503190717 68 32 3.0 7.0 0.00 0.00 0.00 57 1013.6
20260503190215 67 74 3.0 7.0 0.00 0.00 0.00 58 1013.6
20260503185715 67 0 3.0 7.0 0.00 0.00 0.00 59 1013.6
20260503185214 67 11 2.0 7.0 0.00 0.00 0.00 58 1013.6
20260503184715 67 22 2.0 7.0 0.00 0.00 0.00 59 1013.8
20260503184215 66 51 2.0 7.0 0.00 0.00 0.00 59 1013.8
20260503183715 66 122 2.0 6.0 0.00 0.00 0.00 60 1013.8
20260503183215 65 98 2.0 6.0 0.00 0.00 0.00 59 1013.9
20260503182716 66 11 2.0 5.0 0.00 0.00 0.00 59 1014.0
20260503182214 65 45 2.0 7.0 0.00 0.00 0.00 60 1014.0
20260503181716 64 12 3.0 8.0 0.00 0.00 0.00 61 1014.0
20260503181215 65 67 3.0 8.0 0.00 0.00 0.00 62 1014.0
20260503180708 65 104 3.0 10.0 0.00 0.00 0.00 64 1014.0
20260503175709 64 62 2.0 7.0 0.00 0.00 0.00 64 1014.1
20260503175209 63 253 2.0 12.0 0.00 0.00 0.00 65 1014.2
20260503174707 63 115 2.0 12.0 0.00 0.00 0.00 66 1014.2
20260503174207 63 94 2.0 8.0 0.00 0.00 0.00 66 1014.1
20260503173715 62 109 3.0 8.0 0.00 0.00 0.00 65 1014.1
20260503173216 62 130 3.0 7.0 0.00 0.00 0.00 66 1014.2
20260503172715 62 20 2.0 7.0 0.00 0.00 0.00 66 1014.3
20260503172213 62 126 2.0 7.0 0.00 0.00 0.00 67 1014.3
20260503171707 61 145 3.0 7.0 0.00 0.00 0.00 67 1014.3
20260503171207 62 113 3.0 7.0 0.00 0.00 0.00 68 1014.4
20260503170706 61 118 2.0 7.0 0.00 0.00 0.00 67 1014.3
20260503170206 61 91 2.0 8.0 0.00 0.00 0.00 68 1014.3
20260503160201 60 84 2.0 5.0 0.00 0.00 0.00 74 1014.6
20260503150655 57 119 4.0 7.0 0.00 0.00 0.00 78 1014.7
20260503150409 57 107 3.0 7.0 0.00 0.00 0.00 78 1014.7
20260503140128 58 191 4.0 10.0 0.00 0.00 0.00 77 1014.6
20260503131353 58 120 2.0 8.0 0.00 0.00 0.00 75 1014.4
20260503130623 58 330 2.0 8.0 0.00 0.00 0.00 75 1014.4
20260503130347 58 125 2.0 8.0 0.00 0.00 0.00 75 1014.3
20260503120122 59 134 3.0 8.0 0.00 0.00 0.00 73 1014.5
20260503110604 60 115 4.0 11.0 0.00 0.00 0.00 71 1014.5
20260503110104 60 157 4.0 9.0 0.00 0.00 0.00 71 1014.6
20260503100103 60 107 2.0 9.0 0.00 0.00 0.00 69 1014.3
20260503090323 64 139 2.0 8.0 0.00 0.00 0.00 55 1014.5
20260503081530 65 285 3.0 8.0 0.00 0.00 0.00 53 1014.6
20260503081028 66 91 4.0 8.0 0.00 0.00 0.00 52 1014.6
20260503080529 66 13 3.0 8.0 0.00 0.00 0.00 50 1014.4
20260503072529 68 243 2.0 5.0 0.00 0.00 0.00 44 1014.2
20260503072030 68 82 2.0 8.0 0.00 0.00 0.00 44 1014.3
20260503071529 67 76 3.0 8.0 0.00 0.00 0.00 44 1014.2
20260503071035 68 110 2.0 7.0 0.00 0.00 0.00 42 1014.1
20260503070531 68 154 2.0 4.0 0.00 0.00 0.00 41 1014.1
20260503060253 70 188 2.0 4.0 0.00 0.00 0.00 35 1013.8
20260503054517 69 306 2.0 7.0 0.00 0.00 0.00 38 1013.8
20260503054016 69 174 2.0 7.0 0.00 0.00 0.00 37 1013.8
20260503053518 70 141 3.0 7.0 0.00 0.00 0.00 36 1013.8
20260503053014 70 122 3.0 7.0 0.00 0.00 0.00 36 1013.9
20260503052515 69 249 2.0 6.0 0.00 0.00 0.00 39 1013.8
20260503052249 70 145 3.0 6.0 0.00 0.00 0.00 36 1013.9
20260503051514 71 183 2.0 8.0 0.00 0.00 0.00 37 1013.9
20260503051014 71 328 1.0 8.0 0.00 0.00 0.00 36 1013.8
20260503050516 71 46 1.0 7.0 0.00 0.00 0.00 37 1013.9
20260503050014 71 359 3.0 9.0 0.00 0.00 0.00 36 1013.9
20260503045513 71 187 3.0 9.0 0.00 0.00 0.00 36 1013.9
20260503045012 71 170 3.0 9.0 0.00 0.00 0.00 36 1013.8
20260503044515 71 214 2.0 9.0 0.00 0.00 0.00 37 1013.8
20260503044248 71 164 1.0 4.0 0.00 0.00 0.00 37 1013.8
20260503043511 70 249 1.0 4.0 0.00 0.00 0.00 37 1013.7
20260503043245 70 50 2.0 6.0 0.00 0.00 0.00 38 1013.7
20260503042508 71 135 3.0 6.0 0.00 0.00 0.00 37 1013.6
20260503042010 72 151 2.0 6.0 0.00 0.00 0.00 36 1013.6
20260503041506 71 118 2.0 5.0 0.00 0.00 0.00 36 1013.5
20260503041005 71 153 2.0 4.0 0.00 0.00 0.00 36 1013.6
20260503040503 71 176 2.0 7.0 0.00 0.00 0.00 36 1013.5
20260503040004 71 317 2.0 7.0 0.00 0.00 0.00 37 1013.4
20260503035733 71 69 2.0 6.0 0.00 0.00 0.00 37 1013.4
20260503035002 70 324 2.0 6.0 0.00 0.00 0.00 39 1013.2
20260503034502 71 117 3.0 6.0 0.00 0.00 0.00 39 1013.2
20260503034001 70 126 2.0 4.0 0.00 0.00 0.00 39 1013.2
20260503033501 71 151 1.0 4.0 0.00 0.00 0.00 38 1013.1
20260503033001 71 178 1.0 4.0 0.00 0.00 0.00 38 1013.1
20260503032501 71 162 1.0 6.0 0.00 0.00 0.00 39 1013.1
20260503032002 72 300 1.0 6.0 0.00 0.00 0.00 37 1013.0
20260503031732 71 137 1.0 3.0 0.00 0.00 0.00 37 1013.0
20260503031002 71 122 2.0 4.0 0.00 0.00 0.00 40 1013.0
20260503030733 71 139 2.0 5.0 0.00 0.00 0.00 40 1013.0
20260503025501 72 156 2.0 5.0 0.00 0.00 0.00 38 1013.0
20260503025233 71 119 2.0 4.0 0.00 0.00 0.00 41 1013.0
20260503024501 71 120 1.0 3.0 0.00 0.00 0.00 40 1012.9
20260503024013 72 122 2.0 3.0 0.00 0.00 0.00 41 1012.9
20260503023507 72 122 2.0 4.0 0.00 0.00 0.00 42 1012.9
20260503023000 72 133 2.0 5.0 0.00 0.00 0.00 41 1012.9
20260503022720 72 106 2.0 5.0 0.00 0.00 0.00 41 1013.0
20260503021948 74 93 1.0 4.0 0.00 0.00 0.00 37 1012.9
20260503021442 74 93 1.0 4.0 0.00 0.00 0.00 38 1013.0
20260503020942 73 93 1.0 5.0 0.00 0.00 0.00 42 1013.1
20260503020711 73 92 1.0 5.0 0.00 0.00 0.00 42 1013.1
20260503015941 73 53 1.0 5.0 0.00 0.00 0.00 38 1013.2
20260503015447 74 50 1.0 5.0 0.00 0.00 0.00 40 1013.1
20260503015216 73 68 1.0 4.0 0.00 0.00 0.00 40 1013.2
20260503014709 74 97 2.0 5.0 0.00 0.00 0.00 37 1013.2
20260503013940 73 68 1.0 5.0 0.00 0.00 0.00 41 1013.1
20260503013440 75 109 2.0 4.0 0.00 0.00 0.00 39 1013.2
20260503012938 72 107 2.0 5.0 0.00 0.00 0.00 39 1013.2
20260503012700 74 165 2.0 5.0 0.00 0.00 0.00 41 1013.3
20260503011938 73 128 1.0 3.0 0.00 0.00 0.00 43 1013.3
20260503010934 74 249 1.0 4.0 0.00 0.00 0.00 38 1013.5
20260503010657 73 101 2.0 4.0 0.00 0.00 0.00 44 1013.5
20260503005935 74 101 2.0 6.0 0.00 0.00 0.00 43 1013.6
20260503005433 73 93 3.0 6.0 0.00 0.00 0.00 45 1013.6
20260503004933 74 64 3.0 6.0 0.00 0.00 0.00 43 1013.8
20260503004438 71 102 3.0 9.0 0.00 0.00 0.00 47 1013.8
20260503003933 70 93 3.0 9.0 0.00 0.00 0.00 48 1013.9
20260503003435 71 90 4.0 9.0 0.00 0.00 0.00 48 1013.9
20260503002932 69 101 3.0 9.0 0.00 0.00 0.00 49 1014.0
20260503002431 69 124 3.0 8.0 0.00 0.00 0.00 52 1014.1
20260503001929 70 106 3.0 6.0 0.00 0.00 0.00 52 1014.0
20260503001657 69 95 2.0 5.0 0.00 0.00 0.00 49 1014.1
20260503000930 71 70 3.0 8.0 0.00 0.00 0.00 50 1014.1
20260503000430 69 76 3.0 8.0 0.00 0.00 0.00 52 1014.1
20260502235930 71 201 3.0 7.0 0.00 0.00 0.00 48 1014.1
20260502235429 71 51 2.0 7.0 0.00 0.00 0.00 49 1014.1
20260502235149 71 66 2.0 6.0 0.00 0.00 0.00 49 1014.2
20260502234429 70 77 3.0 6.0 0.00 0.00 0.00 50 1014.2
20260502233929 70 67 3.0 8.0 0.00 0.00 0.00 53 1014.3
20260502233429 70 85 3.0 8.0 0.00 0.00 0.00 52 1014.4
20260502232929 70 172 2.0 8.0 0.00 0.00 0.00 49 1014.4
20260502232423 69 75 2.0 8.0 0.00 0.00 0.00 54 1014.5
20260502232143 70 63 3.0 8.0 0.00 0.00 0.00 50 1014.6
20260502231411 69 93 3.0 7.0 0.00 0.00 0.00 53 1014.7
20260502231132 69 89 3.0 8.0 0.00 0.00 0.00 49 1014.7
20260502230406 69 222 3.0 8.0 0.00 0.00 0.00 51 1014.7
20260502230128 68 50 3.0 7.0 0.00 0.00 0.00 52 1014.8
20260502225406 69 270 3.0 12.0 0.00 0.00 0.00 55 1014.9
20260502224906 68 49 3.0 12.0 0.00 0.00 0.00 54 1014.9
20260502224406 69 357 2.0 5.0 0.00 0.00 0.00 54 1015.1
20260502223906 69 307 2.0 5.0 0.00 0.00 0.00 54 1015.1
20260502223632 68 134 3.0 8.0 0.00 0.00 0.00 55 1015.2
20260502222904 67 64 3.0 8.0 0.00 0.00 0.00 58 1015.3
20260502222628 68 320 3.0 11.0 0.00 0.00 0.00 57 1015.3
20260502221901 67 57 3.0 11.0 0.00 0.00 0.00 54 1015.4
20260502221401 68 304 3.0 8.0 0.00 0.00 0.00 58 1015.5
20260502220901 67 308 3.0 8.0 0.00 0.00 0.00 57 1015.5
20260502220404 67 134 3.0 8.0 0.00 0.00 0.00 56 1015.4
20260502215906 66 25 3.0 8.0 0.00 0.00 0.00 59 1015.5
20260502215622 67 272 3.0 8.0 0.00 0.00 0.00 59 1015.7
20260502214901 65 58 3.0 9.0 0.00 0.00 0.00 60 1015.7
20260502214401 67 318 3.0 9.0 0.00 0.00 0.00 58 1015.7
20260502213857 66 16 3.0 8.0 0.00 0.00 0.00 58 1015.8
20260502213351 66 188 3.0 9.0 0.00 0.00 0.00 59 1015.9
20260502212845 65 44 3.0 9.0 0.00 0.00 0.00 61 1015.9
20260502211836 65 58 3.0 8.0 0.00 0.00 0.00 62 1016.0
20260502211335 65 124 3.0 8.0 0.00 0.00 0.00 63 1016.0
20260502210836 64 305 3.0 8.0 0.00 0.00 0.00 65 1016.1
20260502210559 64 62 2.0 8.0 0.00 0.00 0.00 66 1016.1
20260502210051 64 321 3.0 11.0 0.00 0.00 0.00 65 1016.1
20260502205328 64 290 3.0 11.0 0.00 0.00 0.00 65 1016.1